Tracking 23758 objects as of 28-Oct-2021
HD Live streaming from Space Station
objects crossing your sky now

SL-8 DEB

Track SL-8 DEB now!
10-day predictions


NORAD ID: 21943
Int'l Code: 1991-009CE
Perigee: 1,493.4 km
Apogee: 1,712.8 km
Inclination: 74.0 °
Period: 118.1 minutes
Semi major axis: 7974 km
RCS: 0.0463 m2 (small)
Launch date: February 12, 1991
Source: Commonwealth of Independent States (former USSR) (CIS)
Launch site: PLESETSK MISSILE AND SPACE COMPLEX (PKMTR)

Note: This is SATELLITE DEBRIS
aabbcc
Your satellite tracking list
Your tracking list is empty




NASA's NSSDC Master Catalog

Two Line Element Set (TLE):
1 21943U 91009CE  21300.83125067  .00000017  00000-0  30659-3 0  9990
2 21943  73.9514 101.7463 0137588 301.0326 125.6909 12.19210687363831
Source of the keplerian elements: AFSPC